Location: Ca�n Batista
(41.4099°N, 1.7752°E)
Time: 13:25:03
(UTC+00:00)

Cosmos 1869 Rocket - Pass Details

Date: 03 March 2021
Orbit: 604 x 633 km, 82.5° (Epoch: 22 April)

Event Time Altitude Azimuth Distance (km) Brightness Sun altitude
Rises 19:48:51 0° 193° (SSW) 2,853 7.0 -23.7°
Reaches altitude 10° 19:51:03 10° 196° (SSW) 1,958 6.1 -24.1°
Maximum altitude 19:55:22 67° 279° (W) 668 3.8 -24.9°
Drops below altitude 10° 19:59:45 10° 2° (N) 1,990 6.3 -25.7°
Sets 20:02:01 0° 6° (N) 2,905 7.1 -26.1°
